Wind_Speed
53 54 58 54 54 54 51 50 51 56 62 65 56 52 52 52 53 46 45 42 40 40 37 35 35 33 32 30 30 29 28 27 22 20 19 20 23 25 24 24 21 19 17 11
56 53 52 58 55 62 57 49 52 48 57 58 58 56 57 52 49 48 47 46 45 41 35 32 34 33 31 33 33 31 30 27 23 22 21 19 18 20 23 22 21 19 20 12
62 60 52 50 58 62 65 65 60 50 53 51 52 53 56 54 53 53 52 52 49 44 40 36 34 34 36 35 34 32 34 27 25 24 25 22 20 20 20 20 21 22 14 14
66 61 61 64 64 60 67 66 68 63 56 50 48 52 53 56 53 55 57 55 51 47 43 37 36 32 32 31 35 35 36 32 27 27 27 24 22 21 21 19 22 22 18 12
71 68 69 71 72 74 63 59 64 60 60 58 62 55 53 52 56 53 51 50 49 48 44 41 38 34 32 31 28 34 34 33 31 27 30 29 24 20 22 21 22 24 20 12
74 72 69 65 63 63 70 63 53 63 64 62 59 62 55 50 47 48 49 49 51 50 46 44 39 40 33 34 33 33 36 35 35 31 30 34 29 20 24 24 21 24 22 20
73 80 74 70 68 67 67 66 55 58 56 63 61 59 55 50 46 43 45 47 50 51 50 48 44 42 37 37 31 36 39 35 37 37 32 37 25 22 24 27 20 23 20 26
71 75 76 76 73 73 70 68 65 60 58 55 61 58 53 52 51 50 50 50 50 52 53 51 51 46 44 41 36 36 37 35 37 41 37 37 24 23 27 28 18 25 20 26
70 74 78 79 78 80 70 69 69 64 62 63 58 55 50 54 48 49 50 47 48 50 49 50 48 50 47 46 42 38 37 37 39 40 40 39 28 20 22 29 26 25 27 24
72 71 73 78 82 77 77 67 68 62 60 61 57 60 56 51 56 52 47 51 53 52 51 51 48 46 49 50 48 44 43 40 40 39 41 41 26 25 24 26 21 30 29 23
74 73 71 74 77 80 78 72 71 64 60 56 60 59 58 57 56 58 57 52 53 56 54 52 51 51 49 47 49 47 46 42 44 42 41 38 32 31 29 28 22 25 25 23
76 73 73 71 74 72 80 78 79 73 57 60 59 58 59 62 63 60 56 55 57 54 53 52 48 50 47 42 44 46 48 44 44 46 42 42 39 34 34 31 30 26 28 28
77 74 74 73 73 73 74 75 78 81 67 59 61 61 59 58 55 55 59 57 54 55 54 55 53 50 47 47 46 45 46 45 46 46 42 40 41 40 36 36 39 33 30 29
78 78 75 74 73 73 72 71 74 78 80 67 63 64 62 60 57 54 48 49 53 53 51 53 54 51 50 50 48 48 47 46 44 43 40 38 41 38 41 40 40 37 32 31
75 78 77 74 73 72 71 71 70 71 71 73 66 63 66 64 59 58 60 56 52 53 54 53 53 51 50 49 51 52 51 46 45 41 37 41 35 38 40 36 38 39 38 35
75 74 77 76 73 72 69 68 70 68 64 68 70 70 64 62 65 64 59 57 54 56 53 52 54 51 49 49 49 47 49 47 46 45 43 40 40 37 38 36 36 40 41 43
54 71 75 74 70 70 68 68 66 67 66 63 64 66 69 61 57 62 62 55 54 55 56 57 55 52 51 51 50 45 44 46 48 49 48 45 43 42 43 43 40 39 43 44
32 41 66 72 70 67 68 69 66 64 65 66 67 69 64 66 67 63 63 60 56 54 55 56 56 53 51 49 45 45 44 46 47 46 44 44 45 46 45 45 44 39 38 40
40 40 47 67 70 66 67 68 67 65 65 66 68 67 64 59 60 63 61 62 63 62 59 57 57 56 55 44 43 45 47 47 50 48 48 49 48 47 48 49 48 46 39 40
34 32 32 40 48 54 62 68 66 68 67 67 68 65 66 66 61 57 57 57 57 57 60 60 59 56 50 48 47 48 53 50 49 48 48 49 51 51 51 52 52 50 44 44
27 29 29 31 37 45 51 59 66 67 69 69 65 64 62 60 58 60 60 60 58 60 58 57 59 60 51 50 49 50 52 53 54 49 48 47 49 51 54 55 55 53 49 46
24 23 23 24 27 34 42 50 57 63 64 68 65 63 61 60 60 60 61 61 63 61 59 58 60 54 52 49 49 50 50 52 54 54 51 50 50 49 51 52 52 53 52 50
21 22 24 22 26 29 35 41 48 55 59 63 63 63 62 61 60 60 59 60 63 62 64 67 61 56 54 49 48 48 49 49 51 51 49 49 49 51 51 50 48 48 49 48
23 22 23 20 23 24 28 33 34 45 47 53 58 60 60 62 61 61 61 58 59 57 65 65 58 59 56 53 50 52 53 52 54 54 52 50 51 51 48 45 45 47 46 45
29 28 27 18 14 19 23 32 29 24 37 49 50 53 52 58 59 60 52 42 48 59 63 58 56 56 55 55 55 53 53 57 55 52 50 47 47 46 43 43 41 41 42 42
28 26 24 23 19 17 24 34 39 33 27 39 41 37 46 45 48 52 61 60 52 46 53 57 56 56 55 55 55 55 53 53 55 56 58 60 58 54 51 49 48 47 46 45
31 30 29 25 28 25 25 33 35 41 41 32 39 48 41 46 51 48 48 53 56 52 55 51 56 56 56 56 56 57 56 54 54 52 52 53 55 57 55 52 52 53 53 52
Wind_Direction
230 241 238 237 231 235 232 241 244 235 233 232 238 237 241 239 238 239 245 246 249 258 258 258 257 265 263 262 267 266 267 264 261 262 264 263 260 266 271 274 281 285 283 266
227 225 232 247 236 233 232 227 236 236 236 237 240 240 238 240 234 238 240 244 250 255 252 251 264 264 269 258 262 262 261 264 258 256 259 259 257 266 268 272 274 279 276 274
227 224 228 228 241 230 233 234 229 235 241 241 241 240 239 237 238 239 238 242 247 248 248 252 259 264 265 258 261 255 261 261 258 253 255 254 257 265 266 270 275 263 278 256
221 217 223 229 229 227 226 229 234 234 235 232 235 239 238 240 242 243 242 245 248 246 248 250 252 261 267 263 259 254 254 259 257 253 254 257 254 262 269 273 269 262 256 263
213 215 215 225 223 231 231 229 231 228 223 229 231 232 235 236 238 241 246 247 247 243 246 250 251 255 262 261 258 250 252 256 258 254 255 255 255 264 266 262 264 263 261 249
225 216 218 218 221 223 230 232 231 235 234 232 231 232 233 233 235 238 237 239 237 238 243 248 248 250 258 256 252 256 257 256 258 256 256 259 256 260 260 264 268 268 264 266
227 227 224 219 223 229 232 234 232 232 238 236 232 231 234 237 234 236 237 235 237 235 240 244 245 246 255 253 251 259 253 253 256 260 257 258 262 253 260 269 273 274 267 260
227 226 227 227 226 227 233 237 227 232 243 236 232 235 235 228 230 232 235 233 234 235 237 240 243 242 244 245 250 248 250 251 256 259 262 263 265 252 253 262 265 275 276 260
224 225 225 223 227 225 226 225 228 235 231 230 235 235 232 233 231 235 233 234 237 241 244 241 240 237 239 243 245 245 251 251 250 255 260 263 266 266 261 260 256 265 272 269
223 224 225 224 225 226 220 222 226 231 231 229 231 231 232 234 236 227 225 228 233 238 243 241 238 236 239 243 245 244 246 251 248 254 260 259 271 274 265 267 271 254 262 269
222 223 224 226 224 225 226 221 225 227 228 228 229 231 232 233 231 231 227 228 231 236 241 238 237 236 243 247 245 245 244 254 247 250 257 265 264 262 268 269 271 266 260 261
222 222 224 225 228 227 226 225 225 228 225 226 226 226 228 229 230 230 235 235 235 236 235 238 241 237 238 243 247 245 247 252 257 249 256 261 263 268 270 273 268 267 265 258
223 222 223 225 225 228 229 228 227 227 222 227 228 228 227 224 224 231 234 236 236 237 237 238 237 236 236 240 243 243 246 251 253 256 256 258 258 259 266 274 273 265 264 263
223 222 223 223 226 227 230 230 228 228 227 221 227 230 233 231 222 221 230 236 233 230 231 233 235 236 236 238 239 236 240 248 254 256 263 267 259 255 256 261 266 268 261 259
222 223 223 223 224 226 228 232 233 228 230 227 221 228 231 232 232 227 228 229 232 231 232 233 234 236 237 238 239 241 243 249 252 256 257 265 262 258 260 264 266 264 263 258
220 224 224 223 223 226 226 227 232 234 229 230 225 224 224 230 231 232 231 235 238 237 237 238 235 234 236 239 240 241 246 247 250 252 252 256 259 262 264 261 261 262 260 261
226 225 225 226 224 224 226 226 226 231 236 232 230 230 228 220 224 227 231 235 236 237 237 237 237 237 238 236 239 240 243 247 249 250 252 253 256 255 258 261 257 258 261 258
228 234 228 224 225 224 226 227 226 226 227 229 233 232 230 232 229 229 230 235 236 235 235 236 236 239 241 241 233 239 243 246 249 252 252 252 252 253 256 261 258 253 255 258
199 213 228 228 226 227 224 226 226 225 226 228 230 235 232 231 235 236 238 239 240 238 239 242 242 238 237 245 245 244 246 248 249 250 252 255 254 253 253 254 255 256 253 254
216 224 231 235 233 229 227 224 224 226 226 226 229 232 233 233 232 236 238 239 241 244 247 244 239 242 239 239 241 242 248 251 253 256 257 259 259 255 252 252 252 251 251 252
226 227 232 238 238 233 227 225 224 224 225 226 227 229 230 233 232 233 235 239 240 242 244 246 247 244 243 244 244 245 245 248 250 252 252 254 258 256 253 252 251 251 250 248
224 226 234 239 236 232 228 225 224 226 227 228 228 231 231 232 234 233 233 236 239 239 242 242 247 248 247 245 243 243 244 246 249 250 252 253 254 257 256 256 257 258 257 256
224 233 244 247 240 234 227 223 226 225 228 228 229 229 230 232 234 236 236 239 240 241 243 243 244 245 245 244 242 244 243 244 246 248 249 252 253 252 253 256 258 262 258 256
211 222 230 239 240 241 230 219 220 226 225 227 227 226 228 230 231 233 235 239 242 239 243 242 244 241 240 240 237 238 242 246 247 248 251 251 252 254 256 256 256 256 257 257
221 227 232 238 261 235 227 212 197 208 215 218 220 224 227 227 228 231 230 235 247 244 243 246 245 245 242 240 240 238 238 239 242 245 248 249 250 249 248 248 249 254 255 256
232 236 230 268 253 252 221 214 204 195 203 210 208 210 213 221 227 228 227 219 218 233 246 247 246 246 245 243 242 242 240 239 242 245 247 248 251 253 253 253 252 251 252 253
238 236 234 237 273 264 229 213 215 214 212 205 208 207 203 212 221 226 228 231 236 239 241 241 247 248 248 247 246 244 244 243 242 242 243 246 249 251 253 254 255 257 258 259
Height
5616 5624 5634 5642 5650 5652 5654 5656 5663 5668 5674 5682 5689 5698 5705 5713 5719 5725 5730 5734 5739 5742 5746 5746 5749 5750 5751 5753 5753 5754 5755 5755 5758 5758 5758 5759 5759 5760 5759 5759 5760 5758 5759 5761
5602 5610 5618 5626 5636 5639 5643 5646 5650 5655 5660 5669 5678 5687 5694 5701 5709 5714 5719 5723 5728 5732 5735 5738 5740 5742 5743 5744 5746 5747 5748 5748 5751 5752 5753 5753 5753 5753 5753 5753 5754 5754 5753 5757
5586 5596 5604 5611 5621 5625 5628 5630 5635 5642 5649 5660 5667 5675 5683 5689 5697 5703 5707 5712 5716 5721 5725 5729 5731 5733 5734 5736 5738 5740 5740 5742 5743 5746 5745 5746 5746 5747 5747 5747 5748 5748 5750 5750
5569 5577 5588 5596 5605 5610 5613 5614 5619 5632 5639 5646 5655 5661 5670 5678 5685 5690 5695 5700 5705 5711 5714 5718 5722 5725 5726 5728 5730 5731 5733 5735 5736 5737 5738 5739 5740 5741 5740 5742 5741 5741 5744 5746
5550 5560 5567 5579 5587 5596 5596 5598 5608 5618 5628 5634 5640 5648 5658 5664 5672 5678 5683 5689 5697 5699 5703 5709 5712 5716 5718 5720 5722 5723 5725 5727 5728 5730 5730 5731 5734 5736 5736 5736 5736 5735 5737 5741
5528 5539 5551 5561 5567 5572 5576 5585 5595 5604 5612 5618 5624 5639 5648 5654 5660 5665 5672 5677 5681 5686 5693 5696 5702 5704 5708 5711 5715 5714 5716 5718 5720 5722 5722 5721 5727 5731 5729 5730 5731 5730 5732 5734
5509 5519 5531 5542 5549 5555 5562 5574 5583 5590 5595 5604 5618 5626 5633 5640 5646 5651 5658 5664 5669 5676 5679 5684 5688 5694 5698 5700 5704 5705 5705 5710 5710 5712 5714 5713 5723 5725 5724 5723 5726 5724 5726 5725
5489 5501 5511 5524 5532 5541 5550 5559 5569 5576 5581 5594 5602 5611 5620 5625 5629 5636 5642 5650 5657 5661 5666 5671 5676 5682 5685 5688 5692 5696 5698 5700 5701 5701 5705 5705 5714 5717 5717 5717 5722 5717 5719 5719
5472 5482 5493 5505 5516 5526 5536 5544 5555 5561 5569 5580 5590 5598 5604 5610 5619 5625 5632 5637 5643 5649 5654 5659 5662 5667 5674 5678 5681 5687 5690 5691 5692 5693 5696 5696 5706 5710 5709 5708 5712 5712 5710 5712
5453 5464 5475 5487 5498 5508 5520 5529 5541 5546 5552 5565 5572 5582 5590 5598 5605 5613 5619 5624 5630 5635 5640 5645 5652 5655 5661 5665 5670 5677 5681 5681 5681 5685 5685 5687 5700 5701 5701 5702 5709 5703 5703 5706
5432 5446 5457 5470 5481 5491 5502 5515 5526 5531 5537 5549 5558 5568 5576 5584 5591 5599 5606 5610 5614 5621 5627 5631 5637 5642 5648 5654 5659 5665 5671 5674 5674 5675 5677 5681 5688 5690 5693 5695 5696 5696 5697 5699
5415 5428 5441 5453 5464 5472 5485 5498 5509 5515 5521 5532 5541 5553 5562 5570 5581 5586 5591 5597 5604 5609 5613 5620 5625 5630 5636 5644 5649 5655 5658 5667 5667 5669 5671 5673 5676 5680 5681 5684 5687 5688 5689 5691
5397 5411 5425 5437 5449 5458 5468 5478 5488 5495 5508 5518 5526 5540 5549 5557 5564 5572 5578 5584 5591 5596 5601 5608 5612 5617 5623 5630 5636 5644 5649 5651 5655 5658 5662 5665 5666 5670 5673 5673 5674 5679 5681 5682
5381 5395 5408 5421 5433 5443 5453 5461 5471 5481 5493 5501 5516 5525 5535 5544 5549 5557 5564 5572 5577 5582 5587 5591 5598 5604 5610 5618 5624 5632 5637 5640 5644 5648 5652 5655 5657 5659 5660 5662 5664 5669 5672 5674
5366 5378 5392 5406 5418 5428 5439 5448 5457 5465 5476 5487 5504 5512 5519 5528 5534 5541 5550 5557 5563 5569 5573 5577 5585 5592 5598 5604 5611 5620 5627 5631 5634 5638 5641 5641 5645 5647 5649 5652 5654 5658 5662 5664
5352 5364 5375 5391 5403 5414 5425 5434 5441 5450 5460 5472 5485 5494 5503 5512 5519 5527 5535 5542 5549 5554 5560 5567 5573 5579 5584 5589 5601 5610 5614 5617 5620 5625 5627 5630 5633 5635 5638 5642 5643 5645 5650 5653
5341 5349 5361 5374 5388 5399 5408 5417 5430 5437 5448 5458 5465 5475 5487 5497 5504 5512 5521 5528 5534 5541 5547 5553 5560 5566 5570 5578 5593 5599 5602 5604 5607 5611 5615 5619 5622 5624 5625 5629 5632 5635 5638 5641
5334 5337 5346 5359 5373 5386 5393 5402 5415 5425 5432 5442 5448 5458 5476 5484 5492 5501 5508 5515 5522 5525 5532 5538 5544 5551 5555 5565 5583 5585 5588 5590 5594 5597 5602 5606 5609 5612 5615 5617 5621 5622 5626 5629
5326 5330 5338 5349 5360 5369 5376 5388 5398 5408 5417 5423 5432 5449 5464 5471 5480 5487 5495 5501 5505 5510 5515 5522 5530 5533 5540 5563 5569 5572 5574 5577 5581 5583 5588 5592 5596 5598 5602 5604 5608 5611 5613 5616
5325 5330 5335 5339 5345 5352 5363 5374 5383 5391 5400 5408 5420 5436 5447 5460 5469 5475 5483 5486 5488 5492 5499 5507 5511 5521 5538 5546 5553 5558 5561 5565 5569 5571 5573 5577 5581 5584 5586 5591 5594 5598 5599 5603
5319 5323 5328 5332 5336 5343 5350 5359 5368 5376 5383 5395 5412 5422 5434 5445 5456 5463 5465 5465 5472 5474 5484 5491 5495 5513 5531 5532 5538 5543 5547 5551 5555 5557 5559 5562 5566 5569 5572 5575 5579 5583 5586 5587
5314 5318 5322 5326 5328 5332 5338 5346 5354 5361 5371 5384 5401 5412 5423 5432 5436 5443 5448 5453 5452 5459 5470 5476 5481 5511 5515 5517 5522 5528 5532 5536 5539 5542 5544 5547 5551 5555 5559 5562 5564 5567 5570 5573
5308 5312 5316 5318 5321 5323 5327 5336 5343 5350 5359 5373 5389 5400 5407 5415 5422 5425 5431 5433 5439 5447 5451 5457 5480 5497 5497 5503 5509 5513 5517 5521 5524 5527 5529 5532 5534 5539 5544 5548 5550 5553 5556 5558
5302 5306 5309 5312 5315 5317 5322 5328 5334 5341 5351 5362 5373 5381 5391 5399 5405 5409 5414 5419 5423 5427 5432 5448 5471 5474 5483 5489 5494 5497 5502 5505 5509 5512 5514 5518 5521 5525 5529 5532 5535 5539 5542 5544
5297 5300 5304 5308 5309 5311 5315 5321 5327 5333 5340 5348 5358 5367 5376 5384 5388 5393 5400 5408 5404 5411 5425 5440 5450 5457 5465 5471 5477 5482 5486 5490 5493 5497 5501 5504 5506 5511 5515 5519 5522 5526 5528 5531
5289 5294 5299 5301 5304 5305 5308 5313 5320 5326 5333 5339 5348 5355 5360 5367 5371 5374 5379 5391 5396 5405 5413 5423 5431 5439 5445 5451 5457 5464 5469 5474 5478 5482 5485 5489 5492 5496 5501 5505 5509 5512 5515 5517
5281 5288 5291 5294 5296 5298 5301 5306 5311 5319 5325 5331 5336 5342 5348 5353 5356 5362 5369 5379 5390 5396 5403 5410 5416 5422 5427 5433 5440 5446 5452 5457 5462 5466 5469 5472 5476 5481 5485 5489 5493 5496 5499 5502